Zurück zum Katalog

SL-8 R/B

AktivLEO
NORAD 16953·ROCKET BODY·🇷🇺 Russia

Gestartet Sep 10, 1986 von Plesetsk Cosmodrome

Loading…

Nächste Überflüge (nächste 24 Stunden)

TLE

AktuellSource: Space-Track

Epoche: Sep 14, 2026, 18:11 UTC

1 16953U 86070B   26257.75813581  .00000152  00000-0  58099-4 0  9998
2 16953  74.0125 170.6098 0012991 303.5101  56.4812 14.38901770 97081

Verfolge SL-8 R/B in Echtzeit mit AllMySat

Download on the App Store